Columbia, MO

3:24 AM CDT on September 20, 2019 (GMT -0500)
Columbia Regional

Weather History for KCOU - August, 2019

Change the Weather History Date:

Sunday, August 25, 2019

  Actual Average Record
Temperature  
Mean Temperature 71 °F 75 °F  
Max Temperature 77 °F 86 °F 102 °F (1983)
Min Temperature 64 °F 64 °F 48 °F (1958)
Degree Days  
Heating Degree Days 0 0  
Month to date heating degree days 0 0  
Since 1 June heating degree days 2 11  
Since 1 July heating degree days 0 0  
Cooling Degree Days 6 10  
Month to date cooling degree days 324 291  
Year to date cooling degree days 1189 1024  
Since 1 June cooling degree days 1025 921  
Growing Degree Days 20 (Base 50)    
Moisture  
Dew Point 66 °F    
Average Humidity 83    
Maximum Humidity 93    
Minimum Humidity 73    
Precipitation  
Precipitation 1.75 in 0.15 in 3.80 in (1975)
Month to date precipitation 4.56 3.52  
Year to date precipitation 30.54 28.91  
Snow  
Snow 0.00 in 0.00 in 0.00 in (2015)
Month to date snowfall 0.0 0.0  
Since 1 June snowfall 0.0 0.0  
Since 1 July snowfall 0.0 0.0  
Snow Depth 0.00 in    
Sea Level Pressure  
Sea Level Pressure 29.89 in    
Wind  
Wind Speed 9 mph (ESE)    
Max Wind Speed 17 mph    
Max Gust Speed 25 mph    
Visibility 8 miles    
Events Rain    
T = Trace of Precipitation, MM = Missing Value Source: NWS Daily Summary

Daily Weather History Graph

Daily Weather History Graph

Search for Another Location

Airport or City:

Astronomy

Aug. 25, 2019 Rise Set
Actual Time 6:31 AM CDT 7:49 PM CDT
Civil Twilight 6:03 AM CDT 8:17 PM CDT
Nautical Twilight 5:30 AM CDT 8:50 PM CDT
Astronomical Twilight 4:55 AM CDT 9:25 PM CDT
Moon 1:08 AM CDT (8/25) 4:09 PM CDT (8/25)
Length of Visible Light 14h 13m
Length of Day
13h 18m
Waning Crescent, 29% of the Moon is Illuminated
Aug 25
Waning Crescent
Aug 30
New
Sep 5
First Quarter
Sep 13
Full
Sep 21
Last Quarter

Hourly Weather History & Observations

Time (CDT) Temp. Dew Point Humidity Pressure Visibility Wind Dir Wind Speed Gust Speed Precip Events Conditions
12:54 AM 68.0 °F 59.0 °F 73% 30.04 in 10.0 mi ESE 8.1 mph - N/A   Overcast
1:54 AM 64.9 °F 60.1 °F 84% 30.03 in 10.0 mi SE 10.4 mph - N/A   Overcast
2:54 AM 64.0 °F 61.0 °F 90% 30.01 in 10.0 mi East 8.1 mph - N/A   Overcast
3:54 AM 64.9 °F 61.0 °F 87% 29.99 in 10.0 mi East 6.9 mph - N/A   Overcast
4:54 AM 64.9 °F 61.0 °F 87% 29.99 in 10.0 mi East 6.9 mph - N/A   Overcast
5:54 AM 64.9 °F 61.0 °F 87% 29.98 in 10.0 mi East 6.9 mph - 0.00 in   Overcast
6:54 AM 64.9 °F 61.0 °F 87% 29.97 in 10.0 mi East 8.1 mph - N/A   Overcast
7:54 AM 66.0 °F 61.0 °F 84% 29.96 in 10.0 mi East 9.2 mph - N/A   Overcast
8:54 AM 66.0 °F 62.1 °F 87% 29.97 in 10.0 mi ESE 8.1 mph - N/A   Overcast
9:54 AM 68.0 °F 63.0 °F 84% 29.96 in 10.0 mi ESE 6.9 mph - N/A   Overcast
10:54 AM 71.1 °F 64.9 °F 81% 29.95 in 10.0 mi ESE 11.5 mph - N/A   Overcast
11:24 AM 72.0 °F 66.0 °F 81% 29.96 in 10.0 mi SE 9.2 mph - N/A   Overcast
11:54 AM 73.0 °F 66.0 °F 79% 29.93 in 10.0 mi ESE 9.2 mph - N/A   Overcast
12:54 PM 73.9 °F 66.9 °F 79% 29.92 in 10.0 mi SE 6.9 mph - N/A   Overcast
1:54 PM 75.0 °F 68.0 °F 79% 29.91 in 10.0 mi East 9.2 mph - N/A   Overcast
2:54 PM 75.9 °F 68.0 °F 76% 29.87 in 10.0 mi East 10.4 mph - N/A   Overcast
4:54 PM 73.9 °F 68.0 °F 82% 29.82 in 10.0 mi ENE 11.5 mph - N/A   Overcast
5:54 PM 72.0 °F 68.0 °F 87% 29.80 in 10.0 mi East 11.5 mph - 0.00 in Rain Light Rain
6:54 PM 71.1 °F 68.0 °F 90% 29.80 in 6.0 mi East 17.3 mph 24.2 mph 0.00 in   Overcast
7:54 PM 71.1 °F 68.0 °F 90% 29.80 in 7.0 mi ESE 13.8 mph 23.0 mph N/A   Overcast
8:54 PM 71.1 °F 69.1 °F 93% 29.80 in 7.0 mi ESE 11.5 mph 21.9 mph 0.00 in   Overcast
9:10 PM 71.1 °F 69.1 °F 93% 29.82 in 2.0 mi East 5.8 mph - 0.00 in Rain Heavy Rain
9:19 PM 71.1 °F 69.1 °F 93% 29.81 in 1.5 mi East 4.6 mph - 0.18 in Rain Heavy Rain
9:42 PM 71.1 °F 69.1 °F 93% 29.82 in 2.0 mi SSW 6.9 mph - 0.54 in Rain Heavy Rain
9:48 PM 71.6 °F 69.8 °F 94% 29.81 in 0.8 mi Variable 3.5 mph - 0.62 in Rain Heavy Rain
9:49 PM 71.1 °F 69.1 °F 93% 29.80 in 0.8 mi NW 4.6 mph - 0.65 in Rain Heavy Rain
10:12 PM 71.1 °F 69.1 °F 93% 29.81 in 2.0 mi SW 9.2 mph - 1.01 in Rain Heavy Rain
10:18 PM 72.0 °F 70.0 °F 93% 29.81 in 3.0 mi SW 8.1 mph - 1.05 in Rain Rain
10:28 PM 72.0 °F 70.0 °F 93% 29.81 in 5.0 mi SW 15.0 mph 24.2 mph 1.07 in Rain Rain
10:37 PM 72.0 °F 70.0 °F 93% 29.80 in 9.0 mi WSW 10.4 mph 19.6 mph 1.08 in Rain Light Rain
10:54 PM 72.0 °F 70.0 °F 93% 29.78 in 10.0 mi West 9.2 mph - 1.10 in   Overcast
11:15 PM 72.0 °F 69.1 °F 91% 29.81 in 10.0 mi WSW 9.2 mph - N/A   Overcast
11:27 PM 72.0 °F 69.1 °F 91% 29.80 in 10.0 mi West 12.7 mph - 0.00 in Rain Light Rain
11:54 PM 71.1 °F 69.1 °F 93% 29.77 in 10.0 mi West 8.1 mph - 0.00 in   Overcast